Regional Weather Roundup
Issued by NWS

Home | Current Version | Previous Version | Graphics & Text | Print | Product List | Glossary On
Versions: 1 2 3 4 5 6 7 8 9 10 11 12 13 14 15 16 17 18 19 20 21 22 23 24 25 26 27 28 29 30 31 32 33 34 35 36 37 38 39 40 41 42 43 44 45 46 47 48 49 50
000
ASUS45 KABQ 051110
RWRNM
WEATHER ROUNDUP FOR NEW MEXICO
NATIONAL WEATHER SERVICE ALBUQUERQUE NM
500 AM MDT TUE MAY 05 2015

NOTE: "FAIR" MEANS FEW OR NO CLOUDS BELOW 12,000 FEET AGL WITH NO
       SIGNIFICANT WEATHER OR OBSTRUCTIONS TO VISION.

      THIS PRODUCT IS RELEASED AS TWO VERSIONS.  ONE VERSION NEAR
      THE TOP OF THE HOUR CONTAINING PRELIMINARY DATA FROM ALBUQUERQUE
      AND OTHER STATIONS.  A FINAL VERSION WITH ADDITIONAL DATA IS
      ISSUED ABOUT 10 MINUTES AFTER THE HOUR.

NMZ501-503-504-510>518-051200-
NORTHWEST PLATEAU/NORTHCENTRAL MOUNTAINS

CITY           SKY/WX    TMP DP  RH WIND       PRES   REMARKS
FARMINGTON     LGT RAIN  50  47  89 E5        29.92F
LOS ALAMOS     MOCLDY    43  43 100 N8        29.99S
SANTA FE       MOCLDY    46  43  89 CALM      29.97R
TAOS           CLOUDY    41  34  75 N7        29.99F
ANGEL FIRE     CLOUDY    32  32  99 CALM      30.01

$$
NMZ402-403-502-505>509-051200-
WESTCENTRAL MOUNTAINS/SOUTHWEST MOUNTAINS

CITY           SKY/WX    TMP DP  RH WIND       PRES   REMARKS
GALLUP         CLOUDY    45  41  86 SW5       29.98F
GRANTS         CLOUDY    41  41  99 SE7       29.98F
SILVER CITY      N/A     45  39  81 N9        30.00F

$$
NMZ407-409-411-412-051200-
SOUTHERN DESERTS

CITY           SKY/WX    TMP DP  RH WIND       PRES   REMARKS
LORDSBURG      FAIR      45  41  87 CALM      29.97S
DEMING         CLEAR     49  41  74 W5        29.96S
LAS CRUCES     CLEAR     51  40  65 W9        29.95R
HOLLOMAN AFB   PTCLDY    53  53 100 N5        29.89R
ALAMOGORDO     PTCLDY    52  52 100 N5        29.91S
T OR C         CLEAR     51  40  65 NW7       29.93S

$$
NMZ519>523-051200-
CENTRAL VALLEYS/CENTRAL HIGHLANDS

CITY           SKY/WX    TMP DP  RH WIND       PRES   REMARKS
ALBUQUERQUE    CLOUDY    52  48  86 S7        29.95R
DOUBLE EAGLE   CLOUDY    47  47  99 W7        29.96R
MORIARTY ARPT  CLOUDY    46  43  92 SW3       29.99S FOG
CLINES CORNERS MOCLDY    43  41  93 E7        29.97F
BELEN          FAIR      47  43  86 SW7       29.95S
SOCORRO        FAIR      47  44  89 CALM      29.94S

$$
NMZ524>526-539-540-051200-
SOUTHCENTRAL MOUNTAINS

CITY           SKY/WX    TMP DP  RH WIND       PRES   REMARKS
RUIDOSO        PTCLDY    45  41  87 W9        30.00S

$$
NMZ527>531-051200-
NORTHEAST HIGHLANDS/NORTHEAST PLAINS

CITY           SKY/WX    TMP DP  RH WIND       PRES   REMARKS
LAS VEGAS      CLOUDY    41  38  89 N6        30.00R
RATON          LGT RAIN  48  46  93 N6        29.98F
CLAYTON        LGT RAIN  53  52  96 S10       29.96S FOG

$$
NMZ532>537-051200-
EASTCENTRAL PLAINS

CITY           SKY/WX    TMP DP  RH WIND       PRES   REMARKS
TUCUMCARI      CLOUDY    56  53  90 CALM      29.91S
CANNON AFB     LGT RAIN  53  53 100 S6        29.94R
CLOVIS AIRPORT CLOUDY    54  52  94 S7        29.94R

$$
NMZ028-029-538-051200-
SOUTHEAST PLAINS

CITY           SKY/WX    TMP DP  RH WIND       PRES   REMARKS
ROSWELL        MOCLDY    56  54  93 NW8       29.88R
ARTESIA        PTCLDY    57  57 100 NW10      29.89R
CARLSBAD       PTCLDY    58  56  93 NW6       29.85R
HOBBS          TSTM      55  55 100 N9        29.87F


$$


USA.gov is the U.S. government's official web portal to all federal, state and local government web resources and services.